Location: Rounton
(54.4000°N, 1.3500°W)
Time: 13:29:26
(UTC+01:00)

deb Delta 126 - Pass Details

Date: 09 July 2022
Orbit: 1120 x 1970 km, 101.5° (Epoch: 15 August)

Event Time Altitude Azimuth Distance (km) Brightness Sun altitude
Rises 00:44:13 0° 34° (NE) 5,061 ? -13.0°
Reaches altitude 10° 00:47:50 10° 22° (NNE) 4,172 ? -13.1°
Maximum altitude 00:55:21 25° 335° (NNW) 3,297 ? -13.1°
Drops below altitude 10° 01:03:15 10° 288° (WNW) 4,400 ? -13.2°
Sets 01:07:13 0° 276° (W) 5,396 ? -13.2°
